Location: Antin
(43.3330°N, 0.2804°E)
Time: 23:48:16
(UTC+00:00)

Cosmos 2263 Rocket - Pass Details

Date: 16 October 2021
Orbit: 825 x 847 km, 71.0° (Epoch: 04 December)

Event Time Altitude Azimuth Distance (km) Brightness Sun altitude
Rises 19:02:49 0° 336° (NNW) 3,373 5.8 -20.5°
Reaches altitude 10° 19:05:15 10° 337° (NNW) 2,435 5.0 -21.0°
Maximum altitude 19:10:51 79° 64° (ENE) 844 2.0 -22.0°
Enters shadow 19:13:08 37° 146° (SSE) 1,259 2.7 -22.4°
